Location: Clanezzo
(45.7500°N, 9.6000°E)
Time: 16:49:46
(UTC+00:00)

Envisat - Pass Details

Date: 22 January 2022
Orbit: 764 x 765 km, 98.2° (Epoch: 19 May)

Event Time Altitude Azimuth Distance (km) Brightness Sun altitude
Rises 05:05:02 0° 6° (N) 3,241 6.2 -18.8°
Reaches altitude 10° 05:07:28 10° 359° (N) 2,311 5.4 -18.3°
Maximum altitude 05:12:10 39° 292° (WNW) 1,135 3.4 -17.5°
Drops below altitude 10° 05:16:50 10° 225° (SW) 2,297 5.2 -16.7°
Sets 05:19:15 0° 217° (SW) 3,219 6.0 -16.3°
